�������r�C�����j�^�v���󋵏��
Date,Time,5�C6���@���p�r�C��,����,����(m/s)
2024/05/11,00:00,3.7,��,5.7
2024/05/11,00:10,3.7,��,7.6
2024/05/11,00:20,3.7,��,7.2
2024/05/11,00:30,3.6,��,6.8
2024/05/11,00:40,3.7,��쐼,7.0
2024/05/11,00:50,3.6,��쐼,6.4
2024/05/11,01:00,3.6,�쐼,6.4
2024/05/11,01:10,3.6,��쐼,4.6
2024/05/11,01:20,3.7,��,3.8
2024/05/11,01:30,3.6,��쐼,4.1
2024/05/11,01:40,3.6,��,4.2
2024/05/11,01:50,3.6,��,5.2
2024/05/11,02:00,3.5,��,5.6
2024/05/11,02:10,3.7,��,5.3
2024/05/11,02:20,3.6,��,5.1
2024/05/11,02:30,3.5,��,5.4
2024/05/11,02:40,3.5,��,4.3
2024/05/11,02:50,3.5,��,3.3
2024/05/11,03:00,3.6,��,3.3
2024/05/11,03:10,3.7,��쐼,2.6
2024/05/11,03:20,3.6,��,2.8
2024/05/11,03:30,3.6,��,3.0
2024/05/11,03:40,3.7,��,3.7
2024/05/11,03:50,3.6,��,4.2
2024/05/11,04:00,3.7,��,4.5
2024/05/11,04:10,3.6,��,4.4
2024/05/11,04:20,3.6,��,4.8
2024/05/11,04:30,3.5,��,4.5
2024/05/11,04:40,3.5,��,4.9
2024/05/11,04:50,3.7,��,3.9
2024/05/11,05:00,3.6,��쐼,2.6
2024/05/11,05:10,3.6,��쐼,2.8
2024/05/11,05:20,3.7,��쐼,4.1
2024/05/11,05:30,3.7,��쐼,4.4
2024/05/11,05:40,3.6,��쐼,4.6
2024/05/11,05:50,3.5,��,5.2
2024/05/11,06:00,3.6,��,3.8
2024/05/11,06:10,3.5,��,3.3
2024/05/11,06:20,3.6,��,3.8
2024/05/11,06:30,3.7,��,3.9
2024/05/11,06:40,3.5,��,4.9
2024/05/11,06:50,3.5,��,5.3
2024/05/11,07:00,3.6,��,4.6
2024/05/11,07:10,3.7,��,3.2
2024/05/11,07:20,3.3,��,4.4
2024/05/11,07:30,3.5,��,4.1
2024/05/11,07:40,3.7,��,3.7
2024/05/11,07:50,3.6,��,3.9
2024/05/11,08:00,3.5,��,6.4
2024/05/11,08:10,3.6,��,6.4
2024/05/11,08:20,3.7,��,6.4
2024/05/11,08:30,3.5,��,6.2
2024/05/11,08:40,3.6,��,6.5
2024/05/11,08:50,3.4,��,5.9
2024/05/11,09:00,3.5,��쓌,6.4
2024/05/11,09:10,3.5,��쓌,8.8
2024/05/11,09:20,3.5,��,7.8
2024/05/11,09:30,3.5,��,4.9
2024/05/11,09:40,3.7,��,5.7
2024/05/11,09:50,3.7,��,6.6
2024/05/11,10:00,3.6,��,8.3
2024/05/11,10:10,3.6,��,9.2
2024/05/11,10:20,3.6,��쓌,10.7
2024/05/11,10:30,3.4,��,11.1
2024/05/11,10:40,3.6,��,10.0
2024/05/11,10:50,3.5,��,8.6
2024/05/11,11:00,3.4,��,9.3
2024/05/11,11:10,3.5,��쓌,9.6
2024/05/11,11:20,3.6,��쓌,8.6
2024/05/11,11:30,3.5,��,9.2
2024/05/11,11:40,3.5,��쓌,9.6
2024/05/11,11:50,3.7,��쓌,9.7
2024/05/11,12:00,3.5,��,10.5
2024/05/11,12:10,3.5,��쓌,10.0
2024/05/11,12:20,3.7,��,11.3
2024/05/11,12:30,3.6,��,12.4
2024/05/11,12:40,3.6,��,11.6
2024/05/11,12:50,3.6,��,11.8
2024/05/11,13:00,3.5,��쓌,10.6
2024/05/11,13:10,3.7,��쓌,12.7
2024/05/11,13:20,3.9,��쓌,13.5
2024/05/11,13:30,3.6,��쓌,14.9
2024/05/11,13:40,3.5,��쓌,13.6
2024/05/11,13:50,3.7,��쓌,12.5
2024/05/11,14:00,3.7,��쓌,12.7
2024/05/11,14:10,3.5,��쓌,15.5
2024/05/11,14:20,3.6,��,14.1
2024/05/11,14:30,3.5,��쓌,14.1
2024/05/11,14:40,3.5,��쓌,16.1
2024/05/11,14:50,3.6,��,14.7
2024/05/11,15:00,3.7,��쓌,14.7
2024/05/11,15:10,3.6,��,13.6
2024/05/11,15:20,3.5,��쓌,12.0
2024/05/11,15:30,3.5,��쓌,12.5
2024/05/11,15:40,3.6,��,13.0
2024/05/11,15:50,3.5,��쓌,13.3
2024/05/11,16:00,3.5,��,10.8
2024/05/11,16:10,3.6,��쓌,11.8
2024/05/11,16:20,3.6,��쓌,13.0
2024/05/11,16:30,3.6,��,12.4
2024/05/11,16:40,3.6,��,12.4
2024/05/11,16:50,3.5,��,10.5
2024/05/11,17:00,3.7,��,8.8
2024/05/11,17:10,3.6,��,8.9
2024/05/11,17:20,3.7,��,8.5
2024/05/11,17:30,3.6,��,9.6
2024/05/11,17:40,3.6,��쓌,8.1
2024/05/11,17:50,3.7,��,8.5
2024/05/11,18:00,3.6,��,10.2
2024/05/11,18:10,3.6,��,8.4
2024/05/11,18:20,3.6,��,9.0
2024/05/11,18:30,3.7,��,9.2
2024/05/11,18:40,3.6,��,8.2
2024/05/11,18:50,3.6,��,7.9
2024/05/11,19:00,3.5,��,7.9
2024/05/11,19:10,3.5,��,7.1
2024/05/11,19:20,3.7,��,7.3
2024/05/11,19:30,3.5,��,7.7
2024/05/11,19:40,3.7,��,7.3
2024/05/11,19:50,3.6,��,7.5
2024/05/11,20:00,3.5,��,8.0
2024/05/11,20:10,3.6,��,7.5
2024/05/11,20:20,3.6,��,8.3
2024/05/11,20:30,3.6,��,8.5
2024/05/11,20:40,3.6,��,9.0
2024/05/11,20:50,3.7,��,9.4
2024/05/11,21:00,3.6,��,8.1
2024/05/11,21:10,3.6,��,8.3
2024/05/11,21:20,3.6,��,8.2
2024/05/11,21:30,3.6,��,8.3
2024/05/11,21:40,3.6,��,9.2
2024/05/11,21:50,3.5,��,8.5
2024/05/11,22:00,3.7,��,7.8
2024/05/11,22:10,3.6,��,8.2
2024/05/11,22:20,3.6,��,9.1
2024/05/11,22:30,3.6,��,9.1
2024/05/11,22:40,3.5,��,10.2
2024/05/11,22:50,3.5,��,10.0
2024/05/11,23:00,3.6,��,9.5
2024/05/11,23:10,3.6,��,9.3
2024/05/11,23:20,3.5,��,9.4
2024/05/11,23:30,3.7,��,8.9
2024/05/11,23:40,3.5,��,9.0
2024/05/11,23:50,3.7,��,8.8
